Vertical_Velocity
1 1 0 -0 0 0 0 0 0 0 -0 -1 0 -0 -1 -1 1 0 -4 2 -2 -1 -0 1 0 -1 -0 -1 0 0 -4 -0 -3 0 -4 0 -1 1 1 0 0 -5 -2 -4 -4
-1 -1 -1 -1 -1 -1 -1 -3 -3 -2 -1 -1 -1 -2 -2 -3 -3 2 -2 -0 1 2 -1 -1 -1 -1 0 0 1 -4 -1 -4 -3 -1 -1 -1 1 2 -1 -1 -7 -5 -2 -1 1
0 0 -1 -1 -1 -3 -3 -1 2 1 -2 -2 -0 -1 -0 -2 -4 0 -1 -0 -1 -0 -0 1 1 0 -1 1 -0 0 -3 -2 -3 -1 2 0 -0 -1 1 -2 -6 -6 -7 -3 -2
-2 -1 -1 -1 -2 -1 2 -1 -1 -4 2 1 -1 -3 -3 -1 -7 -0 -1 0 0 -0 1 -0 -2 -2 1 0 2 1 -1 -0 -2 -1 0 -1 2 -1 2 -27 4 -1 -1 -1 -3
-2 -1 -1 -2 0 0 -2 -1 1 -2 -3 -2 -2 4 1 -0 -4 0 -1 2 3 2 1 1 0 -0 -0 -0 -0 3 -2 -0 -0 2 -2 4 -4 -6 -8 -2 4 2 0 -4 -2
-2 2 -0 -0 -1 1 0 0 1 1 -4 -0 3 -1 -1 -3 -2 -0 2 3 0 1 -0 -3 0 1 -0 -1 -0 1 1 -3 -4 -5 -0 2 -1 1 -14 4 -1 2 -2 -2 -2
1 -1 0 -2 -2 -2 -4 2 -2 2 4 5 -1 -2 3 -8 -4 -1 1 1 -1 2 -1 4 1 -0 1 -1 1 -2 -0 -2 -2 -2 -2 1 -3 -2 -10 5 -3 -3 -2 -1 0
-0 -3 -3 -2 -1 -1 -1 2 -2 6 -0 -5 -5 3 -6 -0 2 4 3 3 2 2 3 3 1 1 -2 3 -2 1 0 -1 -5 1 -1 -5 -10 -4 -2 2 -4 -4 -1 -1 -3
-1 1 0 -2 -3 -1 -3 -4 2 2 -3 -1 -3 -1 -2 -0 -4 -3 -2 0 0 1 -1 1 -1 0 2 0 -2 -0 -1 1 -7 -0 -1 -1 -4 -7 -0 3 -3 -3 -1 0 -1
-0 -3 -2 -5 -1 -3 -6 -2 -1 0 4 -0 0 -3 0 -2 2 1 1 8 0 -1 -1 2 1 0 -1 -1 -5 -2 1 -0 -1 -4 2 1 -5 -6 -1 3 -2 -2 -1 2 -1
-0 -1 -1 3 -1 -2 -1 -5 -2 -0 0 3 1 -3 5 -1 1 0 0 3 3 3 0 1 -0 -2 -6 -2 -0 1 1 0 -6 -4 4 -2 -1 -5 -4 2 -0 -0 1 -1 -1
-2 -3 -1 -1 -1 -1 1 -8 -0 6 -11 0 2 -2 -1 -2 -0 1 0 0 1 -1 1 -2 -2 -10 0 1 2 1 1 -6 -5 -1 1 -1 -5 -4 -0 -2 -1 -2 1 1 -0
0 -1 -1 -1 -2 -1 -3 -2 -0 -3 1 -9 1 1 1 2 -1 -4 2 1 -1 2 -0 -1 -15 0 2 -1 4 -1 -0 -2 -1 -1 -1 1 -5 -2 -2 -0 2 4 3 1 1
-1 -0 -2 -1 -1 -3 -1 2 0 -1 -6 -6 -1 -2 -2 2 -2 1 1 -0 0 -2 -0 -3 -7 1 1 -0 2 4 -2 1 1 -0 -4 -4 -7 -3 1 2 -0 2 0 1 -1
-1 -2 -3 -2 2 -2 2 4 0 0 -10 -16 -1 2 1 2 1 -1 -2 5 -1 -2 -5 -20 -1 -1 1 -6 0 -12 0 0 -0 0 -0 0 -1 -13 -0 3 2 2 3 3 3
-2 -2 -1 -1 -2 1 1 -2 2 -22 -17 -8 1 -3 -6 -2 -1 3 1 4 4 2 2 -6 -0 2 -5 -2 -1 -1 -0 -0 0 -1 0 -6 -2 -7 -1 -5 2 2 3 2 0
1 -1 -2 -2 -7 -1 1 1 -16 -10 -10 -7 -1 -1 0 -3 -4 0 0 -3 -1 -3 -1 -3 -3 -1 1 1 -1 -0 -3 -3 -5 -3 -7 -0 2 -7 2 2 -1 1 3 3 2
-2 -0 1 -1 -1 0 -4 -11 -4 -1 0 -1 1 -2 1 -0 -2 -2 -1 -1 -2 -1 0 1 -15 0 1 0 0 -2 -4 -2 -0 -1 -2 -0 -1 5 2 2 2 -0 3 3 1
2 -1 -1 -1 -0 -1 -3 -6 -2 1 2 1 -7 0 -2 -2 1 -2 -0 1 1 1 1 0 -5 -6 1 0 1 -5 0 -6 0 -1 -1 -4 7 2 0 3 1 1 -1 2 -1
-1 0 -2 -2 -1 -2 -9 -2 -1 1 0 -0 1 -2 1 -1 -3 -3 -1 2 -1 1 1 -5 -2 -2 -4 -1 -4 -3 -3 -6 -3 1 0 -1 -0 1 1 3 2 0 2 2 -0
0 -1 -2 -1 -0 -9 -4 1 0 2 1 1 1 -0 1 0 1 -1 0 2 -1 -4 0 1 2 -10 -3 -0 1 -5 -2 -2 -0 2 1 0 4 2 3 3 2 2 2 2 -0
-2 -6 -4 -5 -19 1 -1 2 0 -0 -2 -1 0 0 1 0 0 1 2 -0 2 5 -0 -2 2 -0 -6 -15 3 2 2 -0 -1 -2 -1 0 4 1 1 1 1 1 3 4 3
-4 -2 -3 -1 -5 -1 -3 -0 -1 -3 0 -1 -0 0 0 1 -0 1 -0 2 -1 -0 2 -4 -3 -2 -14 -7 -6 -1 1 1 1 -1 -1 3 5 1 0 -1 1 1 1 1 1
-0 -7 -5 -10 0 -2 0 -0 -1 2 1 -0 1 -3 -2 -1 -1 -1 -2 -4 -4 2 4 3 -0 -2 -1 2 4 -1 -2 -1 3 4 -4 -7 -4 0 1 0 -2 -2 1 1 3
-3 1 3 -2 -5 -0 -1 0 -0 -3 -1 1 0 -1 0 -0 -2 1 -2 -9 -4 -5 -1 -3 1 1 -1 0 1 3 2 -2 4 -6 7 -10 1 3 1 1 -0 0 0 -4 -1
-3 -2 -2 -0 1 -1 -1 1 1 -1 3 -2 1 -1 1 1 -0 -2 7 1 1 -5 0 -1 -4 1 -6 -2 2 1 -1 0 0 -1 0 1 2 2 -0 1 -7 3 -0 0 -3
0 1 -1 1 -1 -2 1 -0 1 1 -5 3 6 4 0 -3 3 -3 1 2 -3 5 -1 2 1 1 -3 1 -1 -1 5 1 1 -0 5 -0 5 0 -3 -1 -0 -2 0 3 1
Height
1537 1535 1532 1530 1528 1526 1524 1521 1519 1517 1515 1513 1510 1507 1504 1502 1499 1497 1495 1496 1496 1496 1497 1497 1496 1495 1495 1495 1496 1497 1505 1506 1495 1489 1487 1485 1485 1483 1483 1481 1480 1479 1476 1475 1475
1537 1534 1532 1529 1527 1524 1522 1520 1517 1515 1513 1511 1509 1506 1503 1499 1496 1492 1493 1492 1493 1494 1495 1495 1495 1495 1495 1494 1495 1496 1503 1494 1485 1484 1483 1482 1482 1481 1481 1478 1473 1474 1471 1471 1471
1536 1533 1531 1528 1525 1523 1520 1518 1515 1513 1511 1509 1507 1504 1501 1498 1495 1491 1491 1490 1492 1493 1494 1494 1494 1493 1493 1494 1493 1493 1494 1485 1480 1480 1480 1478 1478 1477 1477 1472 1467 1467 1465 1465 1466
1535 1532 1529 1526 1523 1520 1517 1514 1512 1509 1507 1504 1502 1501 1498 1498 1500 1491 1490 1490 1491 1492 1493 1492 1493 1493 1494 1492 1489 1492 1483 1483 1479 1478 1478 1477 1475 1473 1471 1462 1461 1462 1462 1461 1460
1533 1530 1527 1524 1520 1517 1513 1511 1507 1505 1503 1501 1499 1497 1495 1493 1490 1488 1489 1490 1490 1491 1492 1492 1491 1491 1491 1490 1489 1487 1481 1480 1477 1476 1474 1473 1470 1470 1459 1457 1456 1456 1456 1455 1455
1532 1528 1524 1520 1517 1513 1510 1507 1502 1500 1499 1497 1496 1494 1493 1493 1487 1488 1488 1488 1488 1489 1488 1490 1491 1491 1489 1488 1487 1482 1479 1475 1471 1468 1468 1468 1464 1465 1450 1451 1452 1452 1451 1451 1450
1529 1525 1522 1518 1514 1509 1506 1502 1498 1496 1494 1492 1491 1489 1488 1489 1486 1485 1486 1486 1487 1488 1489 1487 1487 1489 1489 1486 1483 1480 1481 1472 1460 1460 1462 1462 1463 1457 1447 1450 1449 1448 1447 1445 1443
1528 1523 1519 1515 1511 1507 1502 1497 1493 1490 1489 1487 1486 1486 1485 1485 1486 1486 1486 1486 1486 1487 1487 1487 1487 1487 1486 1485 1482 1480 1479 1479 1457 1458 1457 1459 1463 1444 1445 1446 1445 1445 1443 1440 1437
1526 1522 1517 1512 1507 1503 1499 1495 1490 1486 1484 1483 1484 1484 1483 1483 1482 1482 1482 1484 1486 1486 1487 1487 1487 1486 1484 1486 1488 1482 1481 1477 1466 1455 1457 1459 1457 1438 1441 1443 1441 1440 1439 1435 1434
1525 1521 1515 1510 1505 1501 1497 1493 1488 1485 1484 1483 1485 1488 1484 1485 1484 1482 1483 1485 1485 1485 1486 1485 1486 1486 1487 1487 1491 1486 1477 1470 1467 1457 1457 1457 1451 1440 1434 1437 1435 1435 1435 1434 1431
1524 1519 1513 1508 1503 1499 1496 1492 1493 1488 1486 1487 1487 1485 1483 1483 1483 1482 1480 1481 1484 1487 1487 1484 1487 1484 1478 1478 1471 1470 1471 1471 1458 1454 1457 1451 1445 1437 1429 1431 1430 1431 1434 1432 1431
1522 1517 1512 1507 1503 1500 1497 1494 1497 1500 1490 1486 1484 1482 1482 1483 1482 1480 1481 1482 1481 1483 1483 1486 1481 1469 1472 1473 1473 1469 1472 1467 1457 1449 1453 1447 1441 1431 1426 1423 1423 1429 1432 1432 1430
1520 1515 1510 1506 1502 1500 1496 1497 1498 1498 1499 1486 1485 1485 1483 1480 1477 1476 1478 1477 1478 1480 1480 1485 1466 1459 1467 1468 1468 1462 1464 1460 1457 1450 1447 1445 1442 1430 1426 1423 1425 1430 1431 1431 1430
1518 1514 1508 1505 1503 1500 1498 1497 1496 1495 1501 1489 1484 1484 1483 1480 1479 1477 1476 1479 1477 1476 1473 1474 1462 1460 1460 1462 1462 1461 1450 1450 1451 1455 1460 1446 1464 1435 1428 1428 1429 1430 1431 1431 1429
1517 1513 1508 1503 1504 1500 1500 1496 1495 1496 1526 1488 1485 1484 1482 1481 1477 1473 1474 1474 1473 1471 1472 1467 1461 1461 1459 1454 1451 1447 1445 1447 1447 1452 1456 1449 1464 1436 1428 1433 1432 1432 1432 1431 1429
1516 1512 1509 1506 1504 1502 1498 1496 1496 1508 1523 1492 1485 1485 1483 1479 1475 1473 1474 1474 1473 1470 1466 1460 1456 1456 1450 1445 1446 1444 1445 1446 1448 1456 1468 1442 1446 1437 1428 1426 1431 1433 1434 1433 1430
1515 1511 1508 1505 1503 1500 1497 1496 1511 1520 1496 1497 1496 1491 1490 1483 1476 1473 1472 1478 1481 1480 1470 1461 1455 1448 1448 1446 1443 1444 1452 1460 1470 1464 1451 1434 1444 1426 1423 1429 1432 1436 1437 1437 1433
1513 1510 1508 1505 1502 1499 1497 1499 1513 1506 1507 1501 1498 1493 1486 1486 1482 1481 1479 1484 1484 1484 1482 1476 1468 1449 1450 1449 1447 1446 1450 1457 1454 1451 1439 1438 1436 1435 1427 1432 1432 1436 1439 1438 1433
1511 1508 1507 1504 1501 1497 1497 1518 1515 1513 1513 1510 1501 1497 1492 1491 1493 1486 1488 1492 1492 1491 1493 1485 1466 1452 1450 1449 1446 1442 1446 1440 1444 1446 1457 1440 1433 1440 1436 1435 1436 1438 1441 1439 1437
1509 1506 1505 1503 1500 1498 1501 1513 1516 1516 1514 1509 1510 1506 1506 1503 1500 1496 1488 1496 1494 1493 1490 1486 1481 1457 1452 1448 1442 1441 1441 1447 1451 1442 1434 1433 1426 1438 1444 1442 1445 1442 1442 1442 1441
1508 1506 1507 1503 1502 1501 1518 1518 1517 1518 1516 1516 1513 1511 1508 1510 1506 1501 1493 1500 1497 1495 1489 1491 1488 1465 1458 1450 1445 1446 1448 1444 1446 1445 1441 1440 1436 1452 1452 1453 1447 1444 1446 1445 1444
1508 1509 1508 1503 1507 1515 1522 1519 1519 1517 1516 1515 1513 1513 1515 1514 1513 1507 1502 1499 1501 1498 1497 1492 1491 1485 1466 1446 1448 1450 1454 1455 1456 1453 1452 1442 1443 1456 1456 1456 1453 1452 1448 1448 1447
1512 1512 1512 1506 1520 1525 1521 1519 1520 1520 1519 1517 1517 1516 1517 1516 1515 1506 1507 1503 1501 1502 1502 1491 1493 1494 1464 1448 1452 1457 1459 1465 1467 1470 1454 1452 1443 1457 1455 1456 1449 1449 1450 1448 1445
1515 1518 1516 1517 1523 1525 1524 1523 1523 1522 1521 1521 1520 1518 1519 1519 1519 1514 1510 1505 1502 1501 1497 1490 1491 1490 1487 1482 1483 1472 1464 1469 1469 1467 1460 1452 1446 1460 1458 1457 1456 1454 1452 1448 1444
1521 1530 1530 1530 1526 1526 1525 1527 1527 1527 1524 1521 1520 1523 1526 1524 1519 1516 1511 1504 1501 1498 1497 1496 1494 1492 1489 1485 1480 1473 1466 1463 1464 1459 1456 1444 1444 1460 1461 1460 1458 1455 1450 1449 1445
1528 1532 1532 1532 1530 1529 1530 1531 1529 1527 1526 1524 1523 1522 1520 1520 1518 1514 1511 1507 1504 1498 1497 1497 1494 1491 1488 1478 1475 1469 1462 1457 1451 1451 1450 1449 1450 1460 1460 1458 1454 1451 1449 1447 1443
1536 1536 1535 1536 1534 1533 1536 1533 1531 1529 1525 1523 1521 1519 1517 1515 1511 1507 1503 1497 1497 1495 1492 1498 1494 1488 1486 1477 1472 1467 1460 1460 1463 1460 1457 1458 1463 1459 1457 1456 1454 1450 1448 1443 1440